Theta_e
292 292 292 292 292 292 293 293 294 294 298 298 301 304 305 306 311 314 317 319 319 315 313 311 309 305 304 302 297 292 291 289 288 287 287 287 288 288 288 290 292 291 292
290 291 290 290 290 290 291 292 292 293 294 296 297 299 299 298 300 304 307 309 314 315 311 309 307 305 300 298 295 294 289 289 288 287 284 283 286 287 288 288 290 289 289
288 288 288 287 287 287 288 291 292 292 292 293 295 295 296 295 295 296 297 301 304 307 308 307 304 302 300 298 296 294 293 291 288 287 287 281 282 283 285 286 287 288 287
287 288 287 287 287 286 287 289 290 291 291 291 291 290 290 289 290 291 292 294 296 296 299 302 303 301 299 297 296 295 293 292 290 287 289 287 285 283 282 284 285 286 287
286 286 286 287 287 286 285 286 288 288 289 289 290 289 288 289 289 289 289 290 291 291 291 292 295 298 299 297 295 294 292 292 292 289 286 285 285 285 283 282 282 284 285
286 286 287 286 285 284 284 285 286 286 287 287 286 286 286 286 285 286 286 287 288 289 289 289 289 291 292 294 295 294 293 292 292 291 290 289 286 285 284 282 282 282 284
284 284 284 284 284 283 283 284 284 284 285 285 285 284 284 284 283 284 284 284 285 286 287 287 287 287 288 289 290 291 292 292 291 292 292 291 290 289 287 285 282 281 282
285 284 285 284 284 283 282 282 283 283 284 284 283 283 283 283 283 283 283 283 283 284 285 285 285 286 287 287 287 287 287 289 290 290 290 291 290 290 290 289 284 282 280
285 284 284 285 284 284 283 282 281 282 282 283 283 283 282 281 282 282 282 283 283 284 284 284 284 284 284 284 285 284 284 284 285 286 286 287 289 288 288 290 289 288 284
285 284 284 283 284 284 283 283 282 281 282 282 283 282 282 282 281 280 279 279 281 282 282 282 283 283 283 283 283 283 284 283 283 285 285 286 287 287 286 287 289 288 288
285 284 283 284 284 283 283 283 282 281 281 281 282 282 281 281 281 280 280 279 279 279 279 280 280 281 281 281 281 281 282 281 282 283 283 284 285 286 285 284 286 287 288
283 283 281 281 281 280 280 280 281 281 281 281 281 281 281 280 279 279 279 280 279 280 278 279 279 279 279 279 280 280 281 281 280 281 282 282 285 283 284 285 284 284 285
280 282 281 280 280 280 280 280 280 281 281 280 279 279 279 278 278 279 279 279 279 279 278 278 278 279 278 278 278 278 279 280 280 280 281 281 282 283 284 284 284 285 286
280 280 280 281 280 280 279 279 279 280 280 280 279 278 278 278 278 278 278 278 278 278 278 277 278 278 278 278 278 278 278 279 280 281 281 281 281 281 282 283 284 284 284
280 279 279 279 279 279 279 279 279 279 279 279 279 278 279 278 278 277 277 277 277 278 278 277 277 277 277 277 277 278 278 278 279 280 280 281 282 284 284 283 282 283 283
281 280 280 279 279 279 279 280 279 280 279 278 276 278 277 277 277 277 277 277 276 276 276 276 276 275 277 280 281 280 277 278 277 277 279 279 281 282 285 286 288 287 283
279 279 279 279 279 279 280 279 279 278 275 274 273 274 274 274 274 274 274 273 272 273 272 273 273 273 274 278 279 280 278 277 276 276 277 278 279 280 280 283 285 285 287
279 279 278 278 279 279 279 278 278 276 275 273 271 271 272 271 271 270 269 269 270 269 269 270 270 270 272 275 276 276 275 274 275 275 275 275 275 277 278 279 279 281 281
279 279 279 278 278 277 277 276 275 275 273 273 272 271 269 267 268 266 266 267 266 266 266 267 267 266 267 271 272 273 271 271 271 273 273 273 273 276 278 276 276 277 280
279 279 279 279 276 275 275 273 272 271 270 271 270 269 268 263 264 265 264 264 264 265 265 265 265 264 264 268 270 271 269 268 269 270 272 274 274 276 278 275 275 274 277
279 279 278 277 275 274 272 271 270 268 269 268 267 265 265 263 263 262 263 262 262 263 261 262 262 263 264 264 269 271 269 268 268 268 269 271 274 275 276 278 276 276 279
278 277 276 274 273 271 270 268 267 268 265 264 263 262 260 261 262 260 260 260 260 259 259 260 261 263 264 266 268 271 272 272 269 268 269 269 272 274 275 274 276 278 279
278 276 273 271 271 268 267 266 266 265 263 258 256 256 258 260 261 259 259 259 259 259 259 260 260 261 263 264 269 271 272 272 269 269 270 274 275 275 275 274 274 273 272
273 269 268 266 266 266 267 265 263 262 254 251 256 258 258 259 259 260 261 259 258 259 259 259 260 262 264 266 268 268 268 270 270 271 269 270 273 274 274 272 272 272 272
270 268 266 266 265 265 264 261 261 257 255 255 258 258 258 257 259 260 260 260 262 263 263 265 265 265 265 267 271 272 271 271 273 273 273 271 267 265 265 267 269 270 271
267 265 264 264 264 262 262 260 259 254 253 256 258 259 259 259 260 259 259 264 266 268 270 271 270 268 271 273 274 274 275 275 276 273 271 270 270 269 269 268 268 269 270
Wind_Speed
8 9 10 11 13 15 16 16 17 16 12 6 5 5 4 4 5 7 7 2 2 5 4 3 3 4 5 8 7 3 4 1 3 4 2 3 5 6 5 5 5 5 5
10 10 11 12 14 14 15 16 16 16 12 9 4 4 3 4 3 7 10 12 8 5 0 3 4 4 2 2 4 4 2 2 4 4 2 3 4 5 5 5 5 7 4
8 9 11 11 12 15 14 15 15 15 14 12 8 6 5 6 8 10 10 11 12 12 8 6 4 1 2 3 4 4 5 5 4 5 4 1 6 2 1 5 4 5 5
7 7 9 12 13 10 10 12 13 15 14 15 12 13 8 6 4 4 5 8 12 12 12 11 8 5 2 3 4 4 4 2 4 2 6 2 2 3 5 2 4 4 6
6 7 7 8 7 8 9 9 12 14 13 14 13 9 10 6 6 7 10 11 10 10 11 10 9 7 5 4 4 4 5 4 3 4 2 3 2 1 2 4 4 2 5
5 6 5 5 6 6 7 9 12 13 12 12 13 13 12 10 10 10 9 8 7 8 12 10 8 7 7 6 5 5 5 5 6 3 4 4 4 5 4 4 5 5 5
6 6 6 6 6 7 7 8 9 11 10 12 12 12 11 10 10 9 7 9 8 8 12 12 10 7 6 6 5 5 5 5 5 8 8 6 6 2 3 2 3 5 4
5 6 6 5 5 7 7 8 9 9 9 10 10 9 10 6 7 8 7 7 7 7 10 10 10 10 8 7 6 4 4 4 4 8 8 8 6 5 7 8 4 6 4
5 5 5 6 6 5 6 7 6 6 7 6 6 7 6 7 6 7 6 6 6 8 10 10 11 10 9 8 8 5 5 5 4 5 6 7 8 5 5 5 8 10 13
7 6 5 6 4 5 5 6 6 6 4 6 6 4 4 5 4 4 6 6 6 5 7 7 8 10 10 10 8 6 6 6 5 5 6 7 6 6 5 5 7 8 11
7 7 6 6 6 5 4 4 4 5 5 6 5 6 6 6 6 5 5 4 4 4 4 6 6 7 8 7 8 10 9 7 8 6 6 8 7 7 5 4 6 8 8
7 7 7 6 6 6 5 4 3 3 3 3 3 4 4 6 6 6 7 7 8 7 7 9 9 9 8 7 6 9 8 10 12 11 7 9 7 7 7 6 8 7 8
7 7 6 7 7 6 6 5 5 5 4 3 2 1 2 3 4 6 6 7 7 9 9 8 9 11 11 12 12 9 10 9 10 10 11 11 8 9 7 8 9 7 7
8 7 6 7 7 6 7 6 6 5 5 5 4 3 4 4 5 5 6 6 6 8 9 9 10 11 12 12 13 12 12 13 11 11 11 12 11 11 10 9 11 9 9
8 9 8 7 7 7 7 6 6 6 5 4 2 3 3 4 4 5 6 6 7 7 8 10 10 10 10 9 11 12 12 14 16 16 14 12 14 18 18 10 10 10 10
7 8 8 8 9 8 7 6 5 3 0 2 3 4 5 7 7 7 9 10 11 12 12 13 13 14 10 20 24 21 14 15 16 16 16 15 17 17 24 27 27 20 12
6 7 8 8 7 7 6 4 4 3 4 3 3 5 5 5 6 8 11 13 14 14 15 15 15 17 17 25 27 28 15 16 16 17 17 16 13 16 15 20 26 27 27
7 7 5 5 6 4 5 6 5 3 3 2 3 4 5 5 8 10 11 12 12 14 14 15 15 17 15 28 30 30 19 17 18 17 17 18 19 18 19 18 18 18 17
7 8 7 5 5 6 6 6 4 3 3 2 2 2 3 6 8 9 11 11 13 13 14 14 16 16 16 26 29 26 16 17 19 18 18 18 20 26 31 22 21 21 20
7 7 7 5 7 5 5 4 3 2 0 2 4 5 5 3 8 10 11 10 11 14 12 15 14 17 17 23 27 24 12 15 14 16 17 25 25 32 33 22 20 21 22
8 6 7 8 7 6 5 5 4 3 2 2 3 4 6 7 9 10 9 11 12 13 13 14 13 14 15 16 26 26 14 12 13 13 13 12 27 33 34 33 20 21 21
6 8 8 8 6 5 4 4 2 2 2 1 3 5 5 6 8 9 10 10 11 12 12 13 12 10 13 20 23 27 28 25 16 15 13 14 29 31 32 29 34 39 31
8 7 7 7 5 5 4 3 2 0 1 2 4 6 7 7 8 8 11 9 9 8 10 10 11 11 11 12 26 29 30 29 20 14 21 34 35 36 29 28 30 30 15
9 6 8 6 5 4 4 2 2 1 1 4 6 5 5 7 5 6 8 8 8 8 10 11 12 12 11 11 10 12 14 23 21 25 20 24 29 32 28 19 18 13 13
6 7 7 6 6 5 3 2 2 1 3 5 5 5 5 5 7 7 9 8 10 12 12 11 12 12 12 12 24 23 15 14 18 22 14 11 10 11 12 12 13 12 13
6 5 5 5 5 4 2 2 3 3 3 4 4 4 6 5 6 7 9 18 21 25 26 27 21 12 25 31 32 32 32 33 33 17 12 12 12 13 13 13 12 12 15
Wind_Direction
55 37 28 28 28 26 27 24 26 16 25 6 6 26 33 357 22 16 10 31 159 156 169 177 160 151 184 193 188 136 184 179 144 103 341 297 260 249 231 219 218 215 212
45 37 32 33 32 31 30 31 30 26 25 25 4 16 9 29 23 21 28 21 13 17 341 179 187 177 141 161 173 165 149 187 186 143 99 291 302 255 226 224 216 216 208
57 35 35 34 37 36 27 30 30 33 29 22 23 31 31 18 20 18 18 18 21 22 20 13 5 38 143 191 200 204 193 200 213 224 157 119 236 336 354 245 229 215 211
55 47 41 39 35 28 34 43 40 39 34 29 36 41 44 41 354 355 359 23 29 29 25 14 13 11 341 298 237 209 223 151 209 264 250 229 152 219 320 291 255 237 234
86 73 57 55 40 33 32 38 46 46 39 44 48 50 44 26 11 17 21 14 10 23 23 22 22 11 356 324 291 276 228 211 209 204 197 208 211 151 170 285 308 315 244
82 70 60 65 54 34 43 44 50 43 40 43 42 48 48 36 29 21 22 13 9 8 12 10 13 12 9 357 324 292 270 253 250 262 240 208 192 201 196 227 246 233 262
113 100 78 59 50 44 40 58 56 54 44 50 47 45 43 37 34 22 23 20 12 10 1 357 1 2 354 353 355 332 301 279 264 261 257 250 246 206 193 183 244 252 260
135 125 118 99 76 64 51 52 49 49 48 55 44 38 49 40 32 19 16 22 18 5 359 354 351 353 358 360 357 347 328 314 290 280 272 268 260 225 238 247 186 270 274
157 150 122 110 100 88 78 77 70 59 54 64 64 47 36 52 35 14 19 17 12 2 357 355 348 351 355 358 351 349 330 327 294 276 272 267 270 258 233 234 241 255 268
185 162 135 123 123 108 95 80 78 81 72 67 63 65 59 58 48 13 14 4 342 353 337 340 345 341 342 347 351 340 331 329 309 296 277 274 266 262 247 237 244 243 258
186 171 162 152 138 125 125 125 96 73 53 48 40 29 21 21 13 7 349 348 329 331 324 323 316 314 318 331 337 331 326 322 310 304 292 280 264 270 256 234 241 250 248
181 167 161 156 157 169 170 169 169 148 128 110 72 32 10 1 350 342 333 338 330 326 329 335 328 324 320 314 309 306 307 310 311 307 297 284 290 273 264 256 246 233 241
173 161 165 178 185 186 184 193 203 208 201 186 188 225 288 298 304 302 306 312 314 312 314 315 311 310 315 316 313 303 294 282 274 283 291 289 281 280 273 266 265 253 245
179 186 192 202 199 196 195 201 207 201 202 196 207 237 265 274 281 287 288 284 281 283 287 288 292 292 299 295 295 296 296 295 289 278 268 273 273 270 268 262 265 263 253
193 201 202 203 203 205 214 215 212 198 198 208 243 321 312 282 281 288 282 283 278 282 277 285 283 282 278 284 295 294 295 294 294 292 286 278 268 261 264 263 258 257 257
203 207 214 207 209 214 219 220 231 233 50 37 8 344 351 355 343 337 333 325 318 314 309 302 299 293 285 293 300 300 295 293 290 287 286 284 280 273 270 272 269 255 251
207 207 209 208 214 222 218 192 136 95 70 41 5 358 356 352 347 334 325 319 314 312 307 305 305 300 298 305 303 303 297 291 284 283 282 281 278 281 279 276 273 272 265
230 224 212 209 214 166 122 121 110 103 90 48 360 10 15 345 328 321 316 312 309 308 306 304 304 298 300 309 309 307 299 291 283 279 279 279 282 278 281 279 273 267 260
213 216 213 195 153 136 128 120 109 94 56 20 61 51 355 317 316 308 306 306 305 302 300 298 302 302 303 308 305 305 298 289 287 285 280 277 276 276 279 278 277 275 268
224 215 195 142 133 140 123 117 118 89 336 54 354 338 321 294 303 299 300 297 294 294 298 298 297 296 297 301 301 301 291 287 287 286 286 283 281 282 279 271 268 266 263
228 185 163 167 151 133 137 136 151 184 118 42 335 315 304 301 292 289 292 294 293 294 294 293 293 290 287 288 294 296 292 290 288 285 287 288 293 292 290 289 278 269 273
182 169 158 154 143 137 126 138 167 107 49 340 283 282 279 283 290 283 287 287 287 288 292 292 291 287 284 282 286 292 292 290 289 287 281 280 285 285 281 276 274 280 280
184 166 155 143 133 127 117 158 179 9 270 278 271 269 271 273 272 279 287 291 285 290 292 291 290 286 282 275 281 284 286 286 280 271 271 275 281 282 288 294 285 283 277
172 144 141 154 169 167 147 182 229 217 242 271 277 275 267 275 272 275 284 284 287 290 286 284 282 280 280 282 281 273 271 272 274 271 269 263 268 269 271 275 273 265 262
146 152 163 162 167 162 177 205 238 188 263 261 274 281 270 273 289 273 282 282 281 281 284 288 292 297 298 292 293 301 297 286 280 283 279 272 252 255 258 254 251 255 258
146 151 155 153 165 166 213 225 234 201 233 275 278 280 286 290 291 291 292 292 301 302 301 304 306 301 304 307 309 312 309 304 301 292 280 281 283 278 271 262 259 258 264